Regional Weather Roundup
Issued by NWS State College, PA

Home | Current Version | Previous Version | Graphics & Text | Print | Product List | Glossary Off
Versions: 1 2 3 4 5 6 7 8 9 10 11 12 13 14 15 16 17 18 19 20 21 22 23 24 25 26 27 28 29 30 31 32 33 34 35 36 37 38 39 40 41 42 43 44 45 46 47 48 49 50

000
ASUS41 KCTP 030710
RWRCTP

REGIONAL WEATHER ROUNDUP
NATIONAL WEATHER SERVICE STATE COLLEGE PA
200 AM EST TUE MAR 03 2015

Note: "fair" indicates few or no clouds below 12,000 feet with no
significant weather and/or obstructions to visibility.

* = STATION THAT DOES NOT REPORT PRECIPITATION /E.G. RAIN...SNOW...ETC/
    THUNDER OR FOG.

PAZ002>004-007>009-013>016-020>023-029>032-030800-
WESTERN PENNSYLVANIA

CITY           SKY/WX    TMP DP  RH WIND       PRES   REMARKS
ERIE           MOCLDY    15   8  73 S8        30.37S WCI   4
MEADVILLE        N/A     14   8  77 CALM      30.31F
FRANKLIN*      MOCLDY    12   7  79 SE5       30.32F WCI   4
NEW CASTLE     FAIR      14  10  84 CALM      30.36F
BEAVER COUNTY  NOT AVBL
BUTLER*        CLOUDY    18  10  73 SE6       30.34F WCI   9
PITTSBURGH INT CLOUDY    18  13  80 CALM      30.33F HAZE
PITTSBURGH     MOCLDY    19  11  70 E3        30.32F HAZE
INDIANA*       MOCLDY    10   9  92 E3        30.38R
LATROBE        MOCLDY    18  18 100 CALM      30.37F
WASHINGTON CO* MOCLDY    16  10  79 CALM      30.34F
$$

PAZ004>006-010>012-017>019-024>028-033>037-041-042-045-046-049>053-030800-
CENTRAL PENNSYLVANIA

CITY           SKY/WX    TMP DP  RH WIND       PRES   REMARKS
BRADFORD       PTCLDY    -3  -9  75 CALM      30.27S
DUBOIS         PTCLDY    12   8  84 CALM      30.30S
CLEARFIELD     PTCLDY     8   4  83 CALM      30.33F
JOHNSTOWN      PTCLDY    15  10  80 CALM      30.28R
ALTOONA        PTCLDY    16   8  71 CALM      30.34S
STATE COLLEGE  PTCLDY    17   7  67 CALM      30.35F
WILLIAMSPORT   CLEAR     14   6  70 CALM      30.41S
SELINSGROVE    CLEAR     14   6  70 CALM      30.42S
FT INDIANTOWN  CLEAR     24   5  45 N3        30.39S
CAPITAL CITY   CLEAR     21  11  65 SW3       30.40F
HARRISBURG     PTCLDY    20  11  68 N5        30.40S WCI  13
YORK           PTCLDY    16  10  77 W3        30.38F
$$

PAZ038>040-043-044-047-048-054-055-060>062-067>071-030800-
EASTERN PENNSYLVANIA

CITY           SKY/WX    TMP DP  RH WIND       PRES   REMARKS
SCRANTON       CLEAR     18   6  59 N5        30.35S WCI  11
MOUNT POCONO   CLEAR     13   5  70 NW8       30.26R WCI   2
ALLENTOWN      CLEAR     17   5  59 CALM      30.40R
QUAKERTOWN*    SUNNY     23   9  54 N6        30.40R
READING        CLEAR     23   5  46 N8        30.40S WCI  14
LANCASTER      CLEAR     19  11  70 CALM      30.40R
COATESVILLE    FAIR      25  16  68 NW5       30.38S
POTTSTOWN      CLEAR     23   7  50 NE8       30.42R WCI  14
BLUE BELL      CLEAR     27  10  50 CALM      30.40S
DOYLESTOWN     CLEAR     22   8  55 N8        30.39R WCI  12
WILLOW GROVE   NOT AVBL
NORTH PHILA    CLEAR     27   7  42 N8        30.43R
PHILADELPHIA   PTCLDY    28  10  46 N12       30.43R
$$


USA.gov is the U.S. government's official web portal to all federal, state and local government web resources and services.